Location: Madrid
(40.4000°N, 3.6830°W)
Time: 13:56:58
(UTC+01:00)

ISS - Pass Details

Date: 15 December 2017
Orbit: 402 x 406 km, 51.6° (Epoch: 16 December)

Event Time Altitude Azimuth Distance (km) Brightness Sun altitude
Rises 19:29:02 0° 301° (WNW) 2,328 0.7 -18.3°
Reaches altitude 10° 19:31:12 10° 294° (WNW) 1,464 -0.3 -18.7°
Maximum altitude 19:34:17 40° 223° (SW) 614 -2.5 -19.3°
Enters shadow 19:36:11 20° 163° (SSE) 1,016 -1.9 -19.6°
